Location: Drocourt
(49.0571°N, 1.7669°E)
Time: 23:45:22
(UTC+00:00)

SR - Pass Details

Date: 17 April 2024
Orbit: 579 x 859 km, 66.7° (Epoch: 25 May)

Event Time Altitude Azimuth Distance (km) Brightness Sun altitude
Rises 05:49:39 0° 291° (WNW) 3,238 ? 7.6°
Reaches altitude 10° 05:53:55 10° 323° (NW) 2,236 ? 8.3°
Maximum altitude 05:55:41 12° 344° (NNW) 2,089 ? 8.6°
Drops below altitude 10° 05:57:25 10° 5° (N) 2,170 ? 8.8°
Sets 06:01:23 0° 38° (NE) 3,011 ? 9.5°
